[[{"header":{"parameterUnit":"m.s-1","parameterCategory":1,"la1":30.2991,"la2":30.254,"lo1":-89.0895,"lo2":-89.0444,"dy":0.0017,"dx":0.0017,"nx":28,"ny":28,"refTime":"2023-11-22T09:00:00:Z","depth":0,"parameterNumber":2,"parameterNumberName":"U-component_of_WINDS"},"data":[0,0,0,0,0,0,0,0,0,0,0,0,0,0,0,0,0,0,0,0,0,0,0,0,0,0,0,0,0,0,0,0,0,0,0,0,0,0,0,0,0,0,0,0,0,0,0,0,0,0,0,0,0,0,0,0,0,0,3.141,3.141,0,3.1421,3.1421,3.1421,3.1372,3.1371,3.137,3.1368,3.138,3.1381,3.1383,0,0,0,0,0,0,0,0,0,0,0,0,0,3.1349,3.135,3.141,3.141,3.141,3.1421,3.1421,3.1421,3.1373,3.1371,3.1369,3.1368,3.1379,3.1381,3.1383,0,0,0,0,0,0,0,0,0,0,0,0,0,3.1369,3.1351,3.141,3.1387,3.1385,3.1421,3.1421,3.1421,3.1373,3.1371,3.1369,3.1367,3.1379,3.1381,3.1383,3.1441,0,0,3.1391,3.1392,0,0,0,0,0,0,0,0,3.1368,3.1372,3.1391,3.1389,3.1387,3.1393,3.1404,3.1428,3.1374,3.1378,3.1368,3.1366,3.1386,3.1388,3.1394,3.1442,3.1442,3.1391,3.1393,3.1394,3.1394,0,0,0,0,0,0,0,3.1367,3.1371,3.1414,3.1391,3.1389,3.1377,3.1378,3.1408,3.1394,3.1377,3.1374,3.1376,3.1385,3.1392,3.1394,3.1442,3.1391,3.1393,3.1395,3.1396,3.154,3.1542,0,0,0,0,0,0,3.1368,3.137,3.1414,3.1415,3.1372,3.138,3.1381,3.1393,3.1393,3.1391,3.1377,3.1373,3.1389,3.1391,3.1395,3.1463,3.1394,3.1396,3.1397,3.1538,3.1541,3.1543,0,0,0,0,0,0,3.1367,3.1373,3.1414,3.1391,3.1396,3.1383,3.1398,3.1395,3.1402,3.1393,3.1391,3.1388,3.1387,3.1391,3.143,3.1463,3.1397,3.1399,3.1535,3.1539,3.1542,3.1601,0,0,0,0,0,0,3.1366,3.1373,3.1394,3.1392,3.1397,3.1449,3.14,3.1396,3.1406,3.1401,3.1402,3.1401,3.1386,3.1427,3.1433,3.1465,3.1401,3.1532,3.1537,3.1541,3.1596,3.1606,3.1615,0,0,0,0,0,3.1364,3.141,3.1395,3.1401,3.1423,3.1451,3.1454,3.1436,3.1409,3.1431,3.1426,3.14,3.1459,3.1431,3.1438,3.1471,3.153,3.1535,3.1541,3.1592,3.1604,3.1615,0,0,0,0,0,0,3.1415,3.1409,3.1393,3.1439,3.1446,3.1442,3.1469,3.1449,3.1463,3.1458,3.1435,3.1436,3.148,3.1479,3.1449,3.1529,3.149,3.1497,3.1527,3.1538,3.1548,3.1547,3.1403,0,0,0,0,0,3.1431,3.1454,3.1448,3.149,3.1494,3.1481,3.1492,3.1479,3.1484,3.1487,3.1484,3.1491,3.1512,3.1525,3.1543,3.1596,3.1597,3.1623,3.1632,3.164,3.1646,3.1676,3.1688,3.1561,3.1561,3.1561,0,0,3.1466,3.1466,3.1481,3.15,3.1503,3.1528,3.1484,3.1511,3.1529,3.1491,3.1528,3.1527,3.1534,3.1581,3.1601,3.1582,3.1681,3.1647,3.1653,3.1655,3.1683,3.1695,3.1705,3.1564,3.1564,3.1563,0,0,3.1542,3.1543,3.1579,3.1584,3.159,3.1582,3.1591,3.1591,3.1589,3.1626,3.1599,3.162,3.1655,3.1661,3.1669,3.175,3.1728,3.1757,3.1805,3.1835,3.1845,3.1854,3.1883,3.1894,3.1763,3.1763,3.1763,0,3.1584,3.1619,3.16,3.163,3.164,3.1607,3.1644,3.165,3.1662,3.167,3.1648,3.1692,3.1694,3.1743,3.1763,3.177,3.178,3.1756,3.1845,3.1854,3.1861,3.189,3.1901,3.1767,3.1766,3.1766,3.1765,0,3.1671,3.1697,3.1725,3.1738,3.1751,3.1784,3.1771,3.1787,3.1773,3.1767,3.1807,3.1808,3.1827,3.1837,3.1823,3.1885,3.1873,3.1849,3.1809,3.1877,3.1904,3.1914,3.1772,3.177,3.1769,3.1768,0,0,3.1777,3.1781,3.1792,3.1798,3.1804,3.1823,3.1856,3.1875,3.1889,3.1899,3.1926,3.1958,3.1936,3.1945,3.1932,3.1958,3.2023,3.193,3.193,3.1948,3.2093,3.2112,3.2125,3.2009,3.2011,3.2013,3.2093,0,3.1852,3.1907,3.1893,3.1948,3.1972,3.1943,3.1972,3.1979,3.1976,3.1996,3.1992,3.2015,3.1984,3.1989,3.2014,3.201,3.2052,3.2004,3.2035,3.2036,3.2034,3.2138,3.2157,3.2233,3.2103,3.2105,3.2106,0,3.1946,3.1961,3.2019,3.2023,3.2032,3.2058,3.2075,3.2095,3.2103,3.2099,3.211,3.2092,3.2126,3.2087,3.2134,3.2101,3.2113,3.2114,3.2117,3.2118,3.2075,3.2143,3.2256,3.2268,3.2122,3.2121,3.2119,0,3.2019,3.2053,3.2093,3.2099,3.2104,3.2123,3.2126,3.2133,3.2145,3.216,3.2169,3.2188,3.2198,3.2214,3.2202,3.2175,3.2251,3.2211,3.2249,3.2249,3.2265,3.2265,3.2382,3.2274,3.2273,3.2273,3.2273,0,3.2104,3.2141,3.2126,3.215,3.2191,3.2175,3.2216,3.2216,3.2222,3.2247,3.2223,3.2247,3.223,3.2253,3.2244,3.2285,3.2289,3.2287,3.2285,3.2289,3.229,3.2297,3.2291,3.2276,3.2276,3.2275,3.2274,0,3.2191,3.2182,3.2224,3.2226,3.2228,3.2258,3.226,3.2283,3.2279,3.2311,3.2317,3.231,3.2336,3.2326,3.2353,3.2348,3.24,3.239,3.2397,3.2395,3.2434,3.243,3.256,3.2576,3.2457,3.2458,3.2459,0,3.2246,3.2274,3.2279,3.2294,3.2299,3.2324,3.2337,3.2322,3.2337,3.2351,3.2373,3.2397,3.2415,3.2458,3.2455,3.2477,3.2467,3.2512,3.247,3.2475,3.2469,3.2467,3.2471,3.252,3.2521,3.2522,3.2523,0,3.2344,3.2339,3.2359,3.2378,3.2395,3.241,3.2422,3.2436,3.2422,3.2441,3.2467,3.2481,3.251,3.2534,3.2554,3.2558,3.2539,3.2536,3.2546,3.2551,3.2554,3.2554,3.242,3.2533,3.2532,3.2531,3.2531,3.253,3.2417,3.2441,3.2449,3.2473,3.2481,3.2494,3.2517,3.2516,3.2537,3.256,3.255,3.2581,3.2591,3.2615,3.2622,3.2647,3.263,3.2644,3.2648,3.2651,3.2657,3.2551,3.265,3.265,3.265,3.2649,3.2649,0,3.2514,3.2519,3.2541,3.256,3.2579,3.256,3.2573,3.2591,3.2618,3.2629,3.2648,3.2679,3.2704,3.2704,3.2727,3.2747,3.2739,3.2753,3.2752,3.2753,3.267,3.266,3.2759,3.2759,3.2759,3.2759,3.2759,3.2759,3.2567,3.2608,3.2604,3.2649,3.2653,3.2683,3.2693,3.2705,3.2714,3.275,3.277,3.277,3.2778,3.2801,3.2823,3.2823,3.2833,3.2851,3.2847,3.277,3.2759,3.2748,3.2738,3.2853,3.2853,3.2928,3.2928,3.2929]},{"header":{"parameterUnit":"m.s-1","parameterCategory":1,"la1":30.2991,"la2":30.254,"lo1":-89.0895,"lo2":-89.0444,"dy":0.0017,"dx":0.0017,"nx":28,"ny":28,"refTime":"2023-11-22T09:00:00:Z","depth":0,"parameterNumber":3,"parameterNumberName":"V-component_of_WINDS"},"data":[0,0,0,0,0,0,0,0,0,0,0,0,0,0,0,0,0,0,0,0,0,0,0,0,0,0,0,0,0,0,0,0,0,0,0,0,0,0,0,0,0,0,0,0,0,0,0,0,0,0,0,0,0,0,0,0,0,0,-6.3427,-6.3428,0,-6.3535,-6.3536,-6.3537,-6.3491,-6.3488,-6.3486,-6.3483,-6.3589,-6.3594,-6.3599,0,0,0,0,0,0,0,0,0,0,0,0,0,-6.3178,-6.3183,-6.3427,-6.3428,-6.3429,-6.3534,-6.3536,-6.3537,-6.3491,-6.3488,-6.3485,-6.3482,-6.3587,-6.3593,-6.36,0,0,0,0,0,0,0,0,0,0,0,0,0,-6.3286,-6.3184,-6.3426,-6.3419,-6.342,-6.3534,-6.3536,-6.3538,-6.3492,-6.3488,-6.3484,-6.3481,-6.3585,-6.3593,-6.36,-6.3727,0,0,-6.3624,-6.3628,0,0,0,0,0,0,0,0,-6.328,-6.3295,-6.3419,-6.342,-6.3421,-6.3496,-6.3487,-6.3601,-6.3493,-6.3464,-6.3483,-6.3479,-6.3561,-6.357,-6.3599,-6.3732,-6.3736,-6.3625,-6.363,-6.3633,-6.3635,0,0,0,0,0,0,0,-6.3272,-6.329,-6.3469,-6.3421,-6.3422,-6.341,-6.3421,-6.3508,-6.3533,-6.3467,-6.3464,-6.3477,-6.356,-6.3591,-6.3601,-6.3738,-6.3625,-6.3632,-6.3637,-6.364,-6.3982,-6.3986,0,0,0,0,0,0,-6.3265,-6.3284,-6.3466,-6.3472,-6.3339,-6.3417,-6.343,-6.3475,-6.3532,-6.3537,-6.3481,-6.3475,-6.358,-6.3592,-6.3604,-6.3757,-6.3633,-6.364,-6.3645,-6.3977,-6.3983,-6.3987,0,0,0,0,0,0,-6.326,-6.3282,-6.3461,-6.3378,-6.34,-6.3426,-6.3477,-6.3479,-6.3511,-6.3542,-6.3546,-6.3508,-6.3577,-6.3593,-6.3697,-6.376,-6.3644,-6.3651,-6.3972,-6.3979,-6.3985,-6.4063,0,0,0,0,0,0,-6.3253,-6.328,-6.3329,-6.3379,-6.3404,-6.3554,-6.3481,-6.3484,-6.3525,-6.3518,-6.3569,-6.3574,-6.3575,-6.3686,-6.3705,-6.3769,-6.3657,-6.3966,-6.3975,-6.3983,-6.4055,-6.4072,-6.4086,0,0,0,0,0,-6.3244,-6.3345,-6.3332,-6.3354,-6.3466,-6.3557,-6.3572,-6.3573,-6.353,-6.3579,-6.36,-6.3572,-6.3751,-6.3697,-6.3718,-6.3785,-6.3962,-6.3973,-6.3982,-6.4048,-6.4069,-6.4086,0,0,0,0,0,0,-6.3299,-6.3352,-6.3337,-6.3457,-6.3504,-6.355,-6.3611,-6.3594,-6.3652,-6.3643,-6.3641,-6.3653,-6.3761,-6.3783,-6.3723,-6.3912,-6.385,-6.3864,-6.3893,-6.3912,-6.3927,-6.3919,-6.3664,0,0,0,0,0,-6.3326,-6.3397,-6.3438,-6.3541,-6.3565,-6.3585,-6.3624,-6.3622,-6.3669,-6.3687,-6.3716,-6.3761,-6.3828,-6.3871,-6.3934,-6.4059,-6.4069,-6.4115,-6.4131,-6.4143,-6.4156,-6.4225,-6.4246,-6.402,-6.402,-6.4019,0,0,-6.3381,-6.3418,-6.3463,-6.3553,-6.3588,-6.3661,-6.3601,-6.368,-6.3734,-6.3699,-6.38,-6.3822,-6.3873,-6.3989,-6.4041,-6.4011,-6.4221,-6.4156,-6.4165,-6.4171,-6.4237,-6.4258,-6.4278,-6.4026,-6.4025,-6.4024,0,0,-6.3518,-6.3553,-6.3643,-6.3681,-6.3737,-6.375,-6.3771,-6.3821,-6.3835,-6.3937,-6.3913,-6.3976,-6.409,-6.4128,-6.4162,-6.4318,-6.4294,-6.4338,-6.4418,-6.4485,-6.4503,-6.4519,-6.4575,-6.4595,-6.435,-6.4351,-6.4351,0,-6.3578,-6.3689,-6.3691,-6.3774,-6.3815,-6.3789,-6.388,-6.3915,-6.3988,-6.4016,-6.3982,-6.4127,-6.4159,-6.4284,-6.4322,-6.435,-6.4375,-6.4332,-6.4501,-6.4517,-6.4531,-6.4585,-6.4606,-6.4355,-6.4355,-6.4354,-6.4354,0,-6.3761,-6.3839,-6.3904,-6.3978,-6.4026,-6.4112,-6.4127,-6.4175,-6.4169,-6.4186,-6.429,-6.4329,-6.44,-6.4429,-6.4423,-6.4554,-6.4534,-6.45,-6.4438,-6.4558,-6.4608,-6.4629,-6.4363,-6.4361,-6.4359,-6.4358,0,0,-6.3934,-6.4011,-6.4035,-6.4069,-6.413,-6.4189,-6.4274,-6.4346,-6.4388,-6.4439,-6.4511,-6.461,-6.458,-6.4619,-6.4617,-6.4677,-6.4799,-6.4636,-6.4637,-6.4665,-6.4946,-6.4971,-6.4995,-6.4784,-6.4788,-6.4791,-6.4942,0,-6.4076,-6.4228,-6.4234,-6.4372,-6.4444,-6.4422,-6.4497,-6.4542,-6.456,-6.4623,-6.4642,-6.4713,-6.4668,-6.4692,-6.4749,-6.4772,-6.4855,-6.4761,-6.485,-6.4853,-6.4838,-6.5021,-6.5047,-6.5188,-6.4962,-6.4965,-6.4968,0,-6.4262,-6.4323,-6.4469,-6.4522,-6.4552,-6.462,-6.4687,-6.4748,-6.4799,-6.4808,-6.4853,-6.4843,-6.493,-6.4867,-6.4987,-6.4922,-6.496,-6.4976,-6.4982,-6.499,-6.4917,-6.5034,-6.5233,-6.5254,-6.4998,-6.4996,-6.4994,0,-6.4375,-6.4493,-6.4596,-6.4626,-6.469,-6.4738,-6.4766,-6.4814,-6.4857,-6.4916,-6.4944,-6.5011,-6.5048,-6.51,-6.5109,-6.5061,-6.523,-6.5166,-6.5239,-6.5239,-6.5275,-6.5273,-6.5483,-6.5299,-6.5299,-6.5298,-6.5298,0,-6.4533,-6.4624,-6.4648,-6.4711,-6.4812,-6.4818,-6.4917,-6.4942,-6.4985,-6.5053,-6.5037,-6.51,-6.5108,-6.5173,-6.518,-6.5279,-6.5296,-6.5305,-6.5306,-6.5307,-6.5306,-6.5331,-6.5321,-6.5304,-6.5303,-6.5302,-6.5301,0,-6.4675,-6.4695,-6.4807,-6.486,-6.4875,-6.4947,-6.4992,-6.5052,-6.507,-6.5156,-6.5176,-6.5203,-6.528,-6.5294,-6.5383,-6.5388,-6.5507,-6.5497,-6.549,-6.5489,-6.5562,-6.5555,-6.5795,-6.5827,-6.5623,-6.5625,-6.5627,0,-6.4775,-6.4845,-6.4906,-6.4952,-6.4984,-6.5056,-6.5102,-6.511,-6.5158,-6.5223,-6.5276,-6.5352,-6.5412,-6.5535,-6.5562,-6.5631,-6.5623,-6.5703,-6.5633,-6.5633,-6.5625,-6.5621,-6.5628,-6.5716,-6.5718,-6.572,-6.5721,0,-6.4951,-6.4958,-6.5025,-6.5096,-6.5152,-6.5207,-6.526,-6.5298,-6.5314,-6.5368,-6.5448,-6.5495,-6.5589,-6.5664,-6.5733,-6.5761,-6.5744,-6.5744,-6.5764,-6.5766,-6.5759,-6.5764,-6.5527,-6.5738,-6.5736,-6.5735,-6.5734,-6.5733,-6.5075,-6.5137,-6.5191,-6.5266,-6.5308,-6.5358,-6.5419,-6.5446,-6.5513,-6.5591,-6.5591,-6.5679,-6.5729,-6.5821,-6.5854,-6.5922,-6.5896,-6.5926,-6.5933,-6.5941,-6.5948,-6.5749,-6.5934,-6.5934,-6.5933,-6.5933,-6.5933,0,-6.525,-6.5284,-6.5354,-6.5431,-6.549,-6.5472,-6.553,-6.5581,-6.5659,-6.5709,-6.577,-6.5862,-6.5935,-6.597,-6.6042,-6.609,-6.6084,-6.6108,-6.6105,-6.6112,-6.5966,-6.5942,-6.6112,-6.6112,-6.6112,-6.6112,-6.6112,-6.6112,-6.5348,-6.5452,-6.5466,-6.5591,-6.5624,-6.5711,-6.5746,-6.5793,-6.5833,-6.5938,-6.6,-6.6022,-6.6066,-6.6142,-6.6209,-6.6217,-6.6244,-6.6272,-6.6277,-6.614,-6.6122,-6.6104,-6.6081,-6.6278,-6.6278,-6.6417,-6.6418,-6.6419]}]]